When you browse on this site, cookies collect data to enhance your experience and personalize the content and advertising you see.
Visit our Privacy Policy to learn more. By continuing to use the site, you agree to this use of cookies and data.
  • In Hungary
  • List of Countries
  • For 7 days
  • Water Temperature
  • Satellite Maps
  • Weather Map
  • News
  • Weather Widgets
  • user-avatar
    Login

    Hourly Weather Krolevec

    Today, 18 November, Sunday

    Time Temperature Precipitation Wind Pressure Humidity
    00:00 -2°C° 0 mm 1 mps 759 mmHg 41%
    01:00 -2°C° 0 mm 1 mps 758 mmHg 42%
    02:00 -5°C° 0 mm 2 mps 758 mmHg 47%
    03:00 -5°C° 0 mm 2 mps 757 mmHg 50%
    04:00 -5°C° 0 mm 2 mps 756 mmHg 52%
    05:00 -5°C° 0 mm 2 mps 755 mmHg 55%
    06:00 -6°C° 0 mm 2 mps 755 mmHg 56%
    07:00 -7°C° 0 mm 3 mps 755 mmHg 57%
    08:00 -7°C° 0 mm 3 mps 754 mmHg 59%
    09:00 -6°C° 0 mm 3 mps 754 mmHg 57%
    10:00 -5°C° 0 mm 3 mps 754 mmHg 55%
    11:00 -2°C° 0 mm 3 mps 753 mmHg 53%
    12:00 -2°C° 0 mm 3 mps 753 mmHg 54%
    13:00 -2°C° 0 mm 2 mps 753 mmHg 56%
    14:00 -1°C° 0 mm 2 mps 753 mmHg 57%
    15:00 -2°C° 0 mm 2 mps 753 mmHg 62%
    16:00 -4°C° 0 mm 2 mps 753 mmHg 66%
    17:00 -3°C° 0 mm 1 mps 753 mmHg 71%
    18:00 -3°C° 0 mm 1 mps 753 mmHg 72%
    19:00 -3°C° 0 mm 1 mps 753 mmHg 72%
    20:00 -3°C° 0 mm 1 mps 753 mmHg 72%
    21:00 -4°C° 0 mm 0 mps 753 mmHg 72%
    22:00 -4°C° 0 mm 0 mps 753 mmHg 71%
    23:00 -4°C° 0 mm 0 mps 754 mmHg 71%

    Tomorrow, 19 November, Monday

    Time Temperature Precipitation Wind Pressure Humidity
    00:00 -5°C° 0 mm 0 mps 754 mmHg 70%
    01:00 -4°C° 0 mm 1 mps 754 mmHg 70%
    02:00 -4°C° 0 mm 1 mps 754 mmHg 69%
    03:00 -4°C° 0 mm 1 mps 754 mmHg 68%
    04:00 -4°C° 0 mm 1 mps 754 mmHg 67%
    05:00 -4°C° 0 mm 1 mps 754 mmHg 65%
    06:00 -5°C° 0 mm 2 mps 754 mmHg 64%
    07:00 -5°C° 0 mm 2 mps 755 mmHg 64%
    08:00 -5°C° 0 mm 2 mps 755 mmHg 63%
    09:00 -4°C° 0 mm 2 mps 755 mmHg 58%
    10:00 -4°C° 0 mm 3 mps 755 mmHg 54%
    11:00 -1°C° 0 mm 3 mps 756 mmHg 50%
    12:00 -1°C° 0 mm 3 mps 755 mmHg 50%
    13:00 -1°C° 0 mm 3 mps 755 mmHg 51%
    14:00 -1°C° 0 mm 3 mps 755 mmHg 51%
    15:00 -2°C° 0 mm 3 mps 755 mmHg 56%
    16:00 -2°C° 0 mm 3 mps 755 mmHg 60%
    17:00 -4°C° 0 mm 3 mps 755 mmHg 65%
    18:00 -4°C° 0 mm 4 mps 755 mmHg 68%
    19:00 -4°C° 0 mm 4 mps 755 mmHg 71%
    20:00 -4°C° 0 mm 4 mps 755 mmHg 74%
    21:00 -4°C° 0 mm 4 mps 755 mmHg 76%
    22:00 -4°C° 0 mm 4 mps 755 mmHg 78%
    23:00 -5°C° 0 mm 5 mps 755 mmHg 80%

    Day after tomorrow, 20 November, Tuesday

    Time Temperature Precipitation Wind Pressure Humidity
    00:00 -5°C° 0 mm 5 mps 755 mmHg 82%
    01:00 -5°C° 0 mm 5 mps 755 mmHg 84%
    02:00 -5°C° 0 mm 5 mps 755 mmHg 86%
    03:00 -5°C° 0 mm 5 mps 755 mmHg 87%
    04:00 -5°C° 0 mm 5 mps 754 mmHg 89%
    05:00 -5°C° 0 mm 5 mps 754 mmHg 91%
    06:00 -5°C° 0 mm 5 mps 754 mmHg 90%
    07:00 -5°C° 0 mm 5 mps 755 mmHg 89%
    08:00 -4°C° 0 mm 5 mps 755 mmHg 89%
    09:00 -4°C° 0 mm 5 mps 755 mmHg 86%
    10:00 -2°C° 0 mm 5 mps 755 mmHg 84%
    11:00 -2°C° 0 mm 5 mps 755 mmHg 81%
    12:00 -2°C° 0 mm 5 mps 755 mmHg 80%
    13:00 -2°C° 0 mm 5 mps 755 mmHg 80%
    14:00 -2°C° 0 mm 5 mps 755 mmHg 79%
    15:00 -2°C° 0 mm 4 mps 755 mmHg 80%
    16:00 -2°C° 0 mm 4 mps 755 mmHg 82%
    17:00 -3°C° 0 mm 4 mps 755 mmHg 83%
    18:00 -3°C° 0 mm 4 mps 755 mmHg 83%
    19:00 -2°C° 0 mm 3 mps 755 mmHg 83%
    20:00 -2°C° 0 mm 3 mps 755 mmHg 83%
    21:00 -2°C° 0 mm 3 mps 755 mmHg 83%
    22:00 -2°C° 0 mm 2 mps 755 mmHg 84%
    23:00 -2°C° 0 mm 2 mps 755 mmHg 84%

    21 November, Wednesday

    Time Temperature Precipitation Wind Pressure Humidity
    00:00 -2°C° 0 mm 2 mps 755 mmHg 85%
    01:00 -3°C° 0 mm 2 mps 756 mmHg 85%
    02:00 -3°C° 0 mm 2 mps 756 mmHg 86%
    03:00 -3°C° 0 mm 2 mps 756 mmHg 86%
    04:00 -3°C° 0 mm 2 mps 756 mmHg 86%
    05:00 -3°C° 0 mm 2 mps 755 mmHg 86%
    06:00 -3°C° 0 mm 2 mps 756 mmHg 85%
    07:00 -3°C° 0 mm 2 mps 756 mmHg 84%
    08:00 -2°C° 0 mm 2 mps 756 mmHg 83%
    09:00 -2°C° 0 mm 2 mps 756 mmHg 78%
    10:00 -1°C° 0 mm 2 mps 756 mmHg 73%
    11:00 -1°C° 0 mm 2 mps 756 mmHg 68%
    12:00 -1°C° 0 mm 2 mps 756 mmHg 67%
    13:00 -1°C° 0 mm 2 mps 756 mmHg 67%
    14:00 -1°C° 0 mm 2 mps 755 mmHg 66%
    15:00 -2°C° 0 mm 2 mps 755 mmHg 71%
    16:00 -3°C° 0 mm 2 mps 755 mmHg 76%
    17:00 -4°C° 0 mm 2 mps 755 mmHg 81%
    18:00 -4°C° 0 mm 2 mps 755 mmHg 82%
    19:00 -4°C° 0 mm 2 mps 755 mmHg 83%
    20:00 -4°C° 0 mm 2 mps 755 mmHg 84%
    21:00 -4°C° 0 mm 2 mps 755 mmHg 86%
    22:00 -4°C° 0 mm 2 mps 756 mmHg 87%
    23:00 -5°C° 0 mm 2 mps 756 mmHg 88%

    22 November, Thursday

    Time Temperature Precipitation Wind Pressure Humidity
    00:00 -5°C° 0 mm 2 mps 755 mmHg 90%
    01:00 -5°C° 0 mm 2 mps 755 mmHg 91%
    02:00 -5°C° 0 mm 2 mps 755 mmHg 93%
    03:00 -5°C° 0 mm 2 mps 755 mmHg 93%
    04:00 -5°C° 0 mm 2 mps 755 mmHg 94%
    05:00 -5°C° 0 mm 2 mps 755 mmHg 94%
    06:00 -5°C° 0 mm 2 mps 755 mmHg 94%
    07:00 -5°C° 0 mm 2 mps 755 mmHg 93%
    08:00 -5°C° 0 mm 2 mps 755 mmHg 93%
    09:00 -4°C° 0 mm 2 mps 756 mmHg 86%
    10:00 -3°C° 0 mm 2 mps 756 mmHg 80%
    11:00 -2°C° 0 mm 2 mps 756 mmHg 73%
    12:00 -2°C° 0 mm 3 mps 756 mmHg 73%
    13:00 -2°C° 0 mm 3 mps 756 mmHg 72%
    14:00 -1°C° 0 mm 3 mps 755 mmHg 72%
    15:00 -2°C° 0 mm 3 mps 755 mmHg 78%
    16:00 -4°C° 0 mm 3 mps 755 mmHg 83%
    17:00 -5°C° 0 mm 3 mps 755 mmHg 89%
    18:00 -5°C° 0 mm 3 mps 755 mmHg 90%
    19:00 -5°C° 0 mm 3 mps 756 mmHg 91%
    20:00 -5°C° 0 mm 3 mps 756 mmHg 91%
    21:00 -6°C° 0 mm 3 mps 756 mmHg 92%
    22:00 -6°C° 0 mm 3 mps 756 mmHg 93%
    23:00 -6°C° 0 mm 3 mps 756 mmHg 94%

    23 November, Friday

    Time Temperature Precipitation Wind Pressure Humidity
    00:00 -6°C° 0 mm 3 mps 757 mmHg 95%
    01:00 -6°C° 0 mm 2 mps 757 mmHg 95%
    02:00 -6°C° 0 mm 2 mps 757 mmHg 96%
    03:00 -6°C° 0 mm 2 mps 757 mmHg 96%
    04:00 -6°C° 0 mm 2 mps 757 mmHg 96%
    05:00 -6°C° 0 mm 2 mps 758 mmHg 96%
    06:00 -6°C° 0 mm 2 mps 758 mmHg 95%
    07:00 -6°C° 0 mm 2 mps 758 mmHg 95%
    08:00 -6°C° 0 mm 2 mps 759 mmHg 95%
    09:00 -5°C° 0 mm 2 mps 759 mmHg 90%
    10:00 -2°C° 0 mm 1 mps 759 mmHg 85%
    11:00 -1°C° 0 mm 1 mps 759 mmHg 81%
    12:00 0°C° 0 mm 1 mps 759 mmHg 80%
    13:00 0°C° 0 mm 1 mps 759 mmHg 78%
    14:00 0°C° 0 mm 1 mps 759 mmHg 77%
    15:00 -1°C° 0 mm 1 mps 759 mmHg 81%
    16:00 -1°C° 0 mm 1 mps 759 mmHg 85%
    17:00 -2°C° 0 mm 1 mps 759 mmHg 89%
    18:00 -2°C° 0 mm 1 mps 759 mmHg 90%
    19:00 -3°C° 0 mm 1 mps 759 mmHg 91%
    20:00 -3°C° 0 mm 1 mps 758 mmHg 92%
    21:00 -3°C° 0 mm 1 mps 758 mmHg 93%
    22:00 -3°C° 0 mm 1 mps 758 mmHg 93%
    23:00 -6°C° 0 mm 2 mps 758 mmHg 94%
    Show more